Время (UTC), дата Ветер
(°,м/с) 
Видим.   Явления Облачность Т
(°С)
Тd
(°С)
f(%) Тe
(°С)
Pmin
(гПа)
dP
(гПа)
Po
(мм)
O2
(г/м3)
Тmin Tmax R s Состояние
почвы
00 15.05.14 тихо ()   10 км    8/5 1000 м верхняя 
[Sc|Ci fib]
+17.6 +14.4 82 +25  1013.4  -0.6  757  284           
03 15.05.14 тихо ()   10 км  дымка  5/0 верхняя 
[Cc]
+16.5 +14.4 87 +24  1013.1  -0.3  757  285  +16        сухая 
06 15.05.14 100 (В) 10 км    1/0 верхняя 
[Ci fib]
+22 +15.4 66 +31  1012.9  0.1  757  279           
09 15.05.14 090 (В) 10 км    ясно 
+26.1 +15.1 51 +35  1011.7  -1.1  756  275           
12 15.05.14 090 (В) 10 км    3/1 1000 м верхняя 
[Cu med, cong|Ci fib]
+28.5 +13.5 40 +35  1010.4  -1.3  755  273           
15 15.05.14 080 (В) 10 км    ясно 
+28 +11.9 37 +32  1010  -0.4  755  274    +29       
18 15.05.14 070 (В) 10 км    ясно 
+23.5 +11.9 48 +27  1010.5  0.4  755  278           
21 15.05.14 080 (В) 10 км    ясно 
+21.1 +14.4 66 +29  1010.5  755  280           
00 16.05.14 тихо ()   10 км    ясно 
+18.3 +14.9 81 +27  1010.4  -0.1  755  282           
03 16.05.14 060 (СВ) 10 км    ясно 
+18.1 +16 88 +30  1010.5  -0.1  755  282  +17.6        сухая 
06 16.05.14 110 (В) 10 км    ясно 
+24.6 +16.3 60 +35  1010.9  0.5  756  276           
09 16.05.14 120 (ЮВ) 10 км    ясно 
+31.2 +13.3 34 +37  1010.7  -0.2  755  271           
12 16.05.14 100 (В) 10 км    1/1 1000 м 
[Cu hum]
+32.3 +13.1 31 +38  1010.3  -0.4  755  270           
15 16.05.14 140 (ЮВ) 10 км    3/0 средняя 
[Ac trans]
+31.8 +12.4 31 +36  1010  -0.3  755  270    +32.8       
18 16.05.14 тихо ()   10 км    ясно 
+26 +17.4 59 +39  1010.4  0.4  755  274           
21 16.05.14 070 (В) 10 км    ясно 
+23.7 +15 58 +32  1010.1  -0.4  755  277           
00 17.05.14 070 (В) 10 км    ясно 
+21.4 +15.9 71 +31  1010  0.1  755  279           
03 17.05.14 070 (В) 10 км    ясно 
+19.3 +15.7 80 +31  1010.2  0.2  755  281  +18.3        сухая 
06 17.05.14 080 (В) 10 км    ясно 
+26.4 +18 60 +40  1010.5  0.2  755  273           
09 17.05.14 110 (В) 10 км    ясно 
+31.3 +16 40 +42  1010.2  -0.3  755  270           
12 17.05.14 230 (ЮЗ) 10 км    ясно 
+34.9 +10.7 23 +37  1009.4  -0.8  755  268           
15 17.05.14 190 (Ю) 10 км    3/1 1000 м средняя 
[Cu hum|Ac trans]
+33.3 +13 29 +39  1009.3  0.1  754  269    +35.1       
18 17.05.14 300 (СЗ) 10 км    ясно 
+28.3 +15.5 46 +38  1010  0.7  755  272           
21 17.05.14 270 (З) 10 км    ясно 
+22.8 +16.3 67 +34  1010.7  0.6  755  277           
00 18.05.14 220 (ЮЗ) 10 км    ясно 
+19.7 +14.9 74 +29  1011.5  0.7  756  281           
03 18.05.14 230 (ЮЗ) 10 км    4/0 средняя 
[Ac trans]
+19.2 +14.6 75 +28  1011.8  0.3  756  282  +19.2        сухая 
06 18.05.14 240 (ЮЗ) 10 км    10/5 1000 м кучево-дожд., средняя, верхняя 
[Cb cap|Ac trans|Ci fib]
+22 +15.9 68 +32  1012.7  0.9  757  279  +19.1         
09 18.05.14 250 (З) 10 км    8/4 1000 м средняя, верхняя 
[Cu med, cong|Ac trans|Cc]
+24.6 +16 59 +35  1013  0.3  757  276           
12 18.05.14 270 (З) 10 км    10/6 1000 м средняя, верхняя 
[Cu med, cong|Ac trans|Ci fib]
+23.7 +16.1 62 +34  1013.2  0.3  757  277           
15 18.05.14 210 (ЮЗ) 10 км    10/10 1000 м кучево-дожд. 
[Cb cap]
+20.7 +15.1 70 +29  1014.3  758  281    +25.8       
18 18.05.14 230 (ЮЗ) 4000 м  гроза, ливневой дождь  10/10 600 м кучево-дожд. 
[Cb cap]
+18.5 +14.7 79 +27  1015.5  1.1  759  283           
21 18.05.14 270 (З) 10 км  {гроза, ливн. осадки}  10/5 300 м кучево-дожд., средняя, верхняя 
[Cb cap|Ac trans|Ci fib]
+16.5 +14.1 86 +24  1014.7  -0.9  758  285           
00 19.05.14 260 (З) 4000 м  слаб. ливневой дождь{гроза}  10/10 600 м кучево-дожд. 
[Cb cap]
+16.4 +14.4 88 +24  1015.5  0.8  759  286           
03 19.05.14 250 (З) 4000 м  слаб. ливневой дождь  10/10 300 м кучево-дожд. 
[Cb cap]
+15.8 +14.5 92 +24  1016.5  760  286  +15.8      влажная 
06 19.05.14 060 (СВ) 4000 м  слаб. ливневой дождь  10/10 300 м кучево-дожд. 
[Cb cap]
+16.4 +15 91 +26  1017.2  0.8  760  286  +15.8         
09 19.05.14 030 (СВ) 4000 м  слаб. ливневой дождь  10/10 600 м кучево-дожд. 
[Cb cap]
+17.4 +15.7 90 +28  1018.3  1.1  761  285           
12 19.05.14 300 (СЗ) 10 км  в посл. час ливневой дождь  10/8 600 м кучево-дожд., средняя 
[Cb cap|Ac und]
+18.7 +16.2 85 +30  1017.7  -0.6  761  283           
15 19.05.14 010 (С) 10 км  {ливн. осадки}  5/0 средняя, верхняя 
[Ac trans|Cc]
+20.9 +15.3 70 +30  1017.3  -0.4  760  281    +21     
18 19.05.14 340 (С) 4000 м  слаб. ливневой дождь{гроза}  10/10 300 м кучево-дожд. 
[Cb cap]
+17.6 +16.1 91 +28  1018.3  0.9  761  285           
21 19.05.14 тихо ()   10 км  {ливн. осадки}  9/9 600 м кучево-дожд. 
[Cb cap]
+16.9 +15.5 91 +26  1018  -0.3  761  285           
00 20.05.14 040 (СВ) 10 км  {ливн. осадки}  4/0 средняя 
[Ac trans]
+15 +13.9 93 +22  1017.4  -0.6  760  288           
03 20.05.14 тихо ()   н/о    н/о 
+15.4 +14.4 94 +23  1018.2  0.8  761  287  +14.9       
06 20.05.14 030 (СВ) 10 км    9/3 1000 м средняя, верхняя 
[Cu med, cong|Ac trans|Ci]
+21.1 +14.8 67 +29  1017.7  -0.5  761  281           
09 20.05.14 130 (ЮВ) 10 км    10/8 600 м кучево-дожд., верхняя 
[Cb calv|Ci ing]
+21.7 +15.6 68 +31  1017.7  0.1  761  281           
12 20.05.14 100 (В) 10 км    9/6 600 м кучево-дожд., средняя, верхняя 
[Cb calv|Ac trans|Ci fib]
+23.6 +15.9 62 +33  1017.6  0.1  761  279           
15 20.05.14 060 (СВ) 10 км    10/8 600 м кучево-дожд., средняя 
[Cb calv|Ac und]
+24.8 +16.3 59 +35  1016.4  -1.1  760  277    +25.3       
18 20.05.14 140 (ЮВ) 2{11}  4000 м  гроза, ливневой дождь  10/9 600 м кучево-дожд., средняя 
[Cb cap|Ac und]
+17.9 +14.1 78 +26  1017.6  1.1  761  285           
21 20.05.14 360 (С) 10 км  {гроза, ливн. осадки}  10/0 верхняя 
[Ci fib]
+18 +14.5 80 +26  1016.3  -1.2  760  284           
00 21.05.14 130 (ЮВ) 10 км  {гроза, ливн. осадки}  ясно 
+16.8 +14.4 86 +25  1016.5  0.2  760  285           
03 21.05.14 020 (С) 10 км    1/0 средняя 
[Ac lent]
+16.1 +14.9 93 +25  1017  0.5  760  286  +15.3    0.3    влажная 
06 21.05.14 060 (СВ) 10 км    3/0 верхняя 
[Ci fib]
+21.4 +14.4 64 +29  1017.4  0.5  760  281           
09 21.05.14 060 (СВ) 4{10}  10 км    8/0 верхняя 
[Ci fib]
+24.8 +14.2 52 +32  1017.3  0.1  760  278           
12 21.05.14 060 (СВ) 5-11{12}  10 км    10/3 1000 м верхняя 
[Cu hum|Ci fib]
+26.1 +10.7 38 +28  1016.7  -0.6  760  278           
15 21.05.14 060 (СВ) 4{12}  10 км    10/3 1000 м средняя, верхняя 
[Cu Sc|Ac trans|Ci fib]
+25.1 +7.5 33 +25  1016.1  -0.6  759  279    +26.5       
18 21.05.14 050 (СВ) 2{10}  10 км    10/4 1000 м верхняя 
[Sc|Ci fib]
+21.1 +7.8 42 +21  1016.3  0.2  760  283           
21 21.05.14 060 (СВ) 10 км    10/5 1000 м средняя, верхняя 
[Sc|Ac trans|Ci fib]
+19.2 +7.7 47 +20  1015.5  -0.8  759  284           
00 22.05.14 070 (В) 10 км    10/8 1000 м средняя 
[Sc|Ac und]
+17.5 +7.6 52 +18  1015.4  0.1  759  286           
03 22.05.14 080 (В) 10 км    6/4 1000 м средняя, верхняя 
[Sc|Ac trans|Ci fib]
+15.9 +7.8 59 +17  1016.3  0.9  760  288  +15.6        сухая 
06 22.05.14 070 (В) 10 км    9/0 средняя, верхняя 
[Ac trans|Ci fib]
+19.3 +8.9 51 +20  1017  0.7  760  285           
09 22.05.14 060 (СВ) 10 км    8/0 средняя, верхняя 
[Ac trans|Ci fib]
+23.3 +6.8 35 +23  1016.5  -0.4  760  281           
12 22.05.14 360 (С) 10 км    5/0 средняя, верхняя 
[Ac trans|Ci fib]
+25.8 +9.2 35 +26  1015.5  -1  759  278           
15 22.05.14 110 (В) 10 км    10/0 средняя 
[Ac und]
+24.4 +11.5 44 +27  1014.7  -0.7  758  278    +26.6       
18 22.05.14 040 (СВ) 10 км    10/0 средняя 
[Ac und]
+22.4 +11.6 50 +25  1014.3  -0.4  758  280           
21 22.05.14 060 (СВ) 10 км    8/0 средняя 
[Ac trans]
+19.3 +13.6 70 +27  1013.5  -0.4  758  282           
00 23.05.14 040 (СВ) 10 км    10/4 1000 м средняя 
[Sc|Ac und]
+18.1 +13.7 75 +26  1013.2  -0.4  757  283           
03 23.05.14 050 (СВ) 10 км    9/8 1000 м кучево-дожд., средняя 
[Cb cap|Ac trans]
+17.9 +13.4 75 +25  1013.4  0.2  757  284  +17.7        сухая 
06 23.05.14 100 (В) 10 км    9/4 1000 м средняя 
[Cu Sc|Ac trans]
+22.4 +15.2 64 +31  1013.7  0.4  758  279           
09 23.05.14 300 (СЗ) 10 км    10/5 1000 м кучево-дожд., средняя, верхняя 
[Cb cap|Ac trans|Ci fib]
+25.3 +15.9 56 +35  1014  0.3  758  276           
12 23.05.14 070 (В) 10 км    9/4 1000 м средняя, верхняя 
[Cu Sc|Ac trans|Cc]
+26 +14.7 50 +34  1013.6  0.3  758  276           
15 23.05.14 080 (В) 10 км    10/8 1000 м кучево-дожд., средняя 
[Cb cap|Ac As]
+24.7 +13.3 49 +30  1013.9  0.2  758  277    +27.2       
18 23.05.14 090 (В) 10 км    9/1 1000 м средняя, верхняя 
[Sc diur, vesp|Ac trans|Ci fib]
+21.5 +14.3 64 +29  1014.1  0.2  758  280           
21 23.05.14 090 (В) 10 км    3/0 средняя 
[Ac trans]
+19.6 +14.1 71 +28  1014.3  0.2  758  282           
00 24.05.14 200 (Ю) 10 км    1/0 средняя 
[Ac trans]
+17.2 +14.3 83 +26  1014.1  -0.2  758  284           
03 24.05.14 тихо ()   10 км    3/0 средняя, верхняя 
[Ac trans|Ci fib]
+16.6 +14.4 87 +24  1014.2  -0.1  758  285  +16.3        сухая 
06 24.05.14 090 (В) 10 км    3/0 средняя, верхняя 
[Ac trans|Ci fib]
+23.5 +13 52 +29  1014.2  0.1  758  279           
09 24.05.14 070 (В) 10 км    ясно 
+26.9 +14.6 47 +35  1013.9  -0.3  758  275           
12 24.05.14 060 (СВ) 10 км    4/3 1000 м верхняя 
[Cu hum|Ci sp]
+28.9 +13.1 38 +34  1013.2  -0.7  757  273           
15 24.05.14 080 (В) 10 км    8/1 1000 м средняя, верхняя 
[Sc diur, vesp|Ac trans|Ci fib]
+28.4 +12.4 37 +33  1012.2  -1  757  274    +29.6       
18 24.05.14 050 (СВ) 10 км    8/0 средняя, верхняя 
[Ac trans|Ci fib]
+24.5 +14.8 55 +33  1012.2  757  277           
21 24.05.14 050 (СВ) 10 км    ясно 
+20.8 +15.7 73 +30  1012.4  0.1  757  280           
00 25.05.14 200 (Ю) 10 км    5/0 средняя 
[Ac trans]
+18.6 +15.7 83 +30  1011.9  -0.5  756  282           
03 25.05.14 200 (Ю) 10 км    10/6 1000 м кучево-дожд., средняя, верхняя 
[Cb cap|Ac trans|Cs]
+18.7 +15.7 83 +30  1012.8  0.9  757  282  +18.6        сухая 
06 25.05.14 220 (ЮЗ) 10 км    10/4 1000 м кучево-дожд., средняя, верхняя 
[Cb cap|Ac trans|Ci fib]
+22.4 +16.1 68 +33  1012.8  757  278           
09 25.05.14 210 (ЮЗ) 10 км    10/4 1000 м кучево-дожд., средняя, верхняя 
[Cb cap|Ac trans|Cc]
+25.7 +15.4 53 +35  1012.9  0.2  757  276           
12 25.05.14 270 (З) 10 км    10/6 1000 м кучево-дожд., средняя, верхняя 
[Cb cap|Ac trans|Ci fib]
+23.9 +15.8 60 +34  1012.2  -0.8  757  277           
15 25.05.14 310 (СЗ) 1{10}  4000 м  гроза, ливневой дождь  10/8 600 м кучево-дожд., средняя 
[Cb cap|Ac trans]
+20.3 +18 87 +34  1012.5  0.3  757  280    +26.4     
18 25.05.14 230 (ЮЗ) 10 км  {гроза, ливн. осадки}  10/3 1000 м кучево-дожд., средняя, верхняя 
[Cb cap|Ac trans|Ci fib]
+20.6 +15.6 73 +30  1012.3  -0.2  757  280           
21 25.05.14 230 (ЮЗ) 4000 м  слаб. ливневой дождь  10/6 600 м кучево-дожд., средняя 
[Cb cap|Ac und]
+19.4 +15.1 76 +29  1012.5  0.2  757  282           
00 26.05.14 220 (ЮЗ) 4000 м  слаб. ливневой дождь  10/10 600 м кучево-дожд. 
[Cb cap]
+18 +16.1 89 +29  1012.7  0.3  757  283           
03 26.05.14 310 (СЗ) 1{10}  4000 м  гроза, ливневой дождь  10/8 600 м кучево-дожд., средняя 
[Cb cap|Ac trans]
+20.3 +18 87 +34  1012.5  0.3  757  280    +26.4     
06 26.05.14 200 (Ю) 10 км  {ливн. осадки}  9/5 1000 м средняя 
[Sc diur, vesp|Ac trans]
+19.2 +16.5 84 +31  1012  0.2  756  281  +17.5         
09 26.05.14 210 (ЮЗ) 4{11}  10 км    9/3 1000 м средняя, верхняя 
[Sc|Ac trans|Ci fib]
+21.9 +15.6 67 +31  1012.4  0.4  757  279           
12 26.05.14 200 (Ю) 5-10{10}  10 км    9/9 1000 м 
[Sc]
+21.8 +15 65 +30  1011.9  -0.5  756  279           
15 26.05.14 200 (Ю) 3{10}  10 км    9/8 1000 м кучево-дожд., средняя 
[Cb cap|Ac trans]
+21 +14.5 66 +29  1010.9  -1  756  280    +22.8  0.8     
18 26.05.14 210 (ЮЗ) 10 км    9/9 1000 м кучево-дожд. 
[Cb cap]
+19.1 +14.5 75 +28  1010.4  -0.6  755  281           
21 26.05.14 220 (ЮЗ) 10 км    8/8 1000 м 
[Sc]
+19 +14.1 73 +27  1010.8  0.4  755  282           
00 27.05.14 230 (ЮЗ) 10 км  в посл. час ливневой дождь  9/9 600 м кучево-дожд. 
[Cb cap]
+18.4 +15.2 82 +29  1009.9  -0.9  755  282           
03 27.05.14 230 (ЮЗ) 10 км  {ливн. осадки}  10/10 600 м кучево-дожд. 
[Cb cap]
+18.8 +14.7 77 +27  1009.8  0.1  755  281  +18.3    0.8    влажная 
06 27.05.14 220 (ЮЗ) 10 км  {ливн. осадки}  10/10 1000 м кучево-дожд. 
[Cb cap]
+20.3 +15.3 73 +29  1010.7  755  280           
09 27.05.14 200 (Ю) 10 км    9/8 1000 м кучево-дожд., средняя 
[Cb cap|Ac trans]
+22.6 +15.8 65 +32  1011.3  0.5  756  278           
12 27.05.14 210 (ЮЗ) 4{11}  10 км    9/5 1000 м средняя 
[Sc|Ac trans]
+23.4 +16 63 +34  1010.1  -1.2  755  277           
15 27.05.14 200 (Ю) 10 км    8/1 1000 м средняя, верхняя 
[Sc diur, vesp|Ac trans|Ci fib]
+22.5 +15.8 66 +32  1009.3  -0.8  754  277    +24.6       
18 27.05.14 210 (ЮЗ) 10 км    9/5 1000 м кучево-дожд., средняя 
[Cb cap|Ac trans]
+19 +15.1 78 +29  1009.8  0.5  755  281           
21 27.05.14 220 (ЮЗ) 10 км    9/0 средняя 
[Ac trans]
+18.4 +14.6 79 +28  1009.1  -0.7  754  282           
00 28.05.14 230 (ЮЗ) 10 км    ясно 
+17.4 +14.4 83 +27  1008.4  -0.7  754  283           
03 28.05.14 230 (ЮЗ) 10 км    3/0 средняя 
[Ac trans]
+18 +14.9 82 +27  1008.8  0.4  754  282  +16.3        сухая 
06 28.05.14 200 (Ю) 10 км    5/0 средняя, верхняя 
[Ac cast|Ci fib]
+23.6 +15.1 59 +32  1009  0.3  754  277           
09 28.05.14 240 (ЮЗ) 10 км    8/3 1000 м верхняя 
[Cu med, cong|Ci fib]
+26.6 +15.4 50 +36  1008.7  -0.3  754  274           
12 28.05.14 200 (Ю) 10 км    8/8 600 м кучево-дожд. 
[Cb cap]
+23.8 +17 66 +36  1008.6  -0.2  754  276           
15 28.05.14 290 (З) 10 км  в посл. час ливневой дождь{гроза}  10/4 1000 м кучево-дожд., верхняя 
[Cb cap|Ci fib]
+24.1 +16.7 63 +36  1008.3  -0.2  754  275    +27.5  0.8     
18 28.05.14 240 (ЮЗ) 10 км  {гроза, ливн. осадки}  5/3 1000 м верхняя 
[Sc|Ci fib]
+21.4 +15 67 +30  1010.6  2.2  755  279           
21 28.05.14 200 (Ю) 10 км    5/0 верхняя 
[Ci fib]
+18.1 +14.6 80 +28  1009.9  -0.7  755  282           
00 29.05.14 150 (ЮВ) 10 км    8/0 средняя, верхняя 
[Ac trans|Ci fib]
+16.3 +14.1 87 +25  1010.4  0.4  755  284           
03 29.05.14 110 (В) 10 км    3/0 верхняя 
[Ci fib]
+16.6 +13.9 84 +25  1011.5  1.1  756  284  +15.5        сухая 
06 29.05.14 170 (Ю) 10 км    3/0 верхняя 
[Ci fib]
+22.8 +13.7 56 +29  1012  0.5  756  279           
09 29.05.14 200 (Ю) 10 км    1/1 1000 м 
[Sc diur, vesp]
+27.3 +9.5 33 +28  1012.1  0.5  757  276           
12 29.05.14 330 (СЗ) 1{10}  10 км    4/4 1000 м 
[Cu med, cong]
+27.5 +11.6 37 +31  1011.4  -0.7  756  275           
15 29.05.14 020 (С) 10 км    5/5 1000 м кучево-дожд. 
[Cb cap]
+28.1 +12 37 +32  1011.3  0.1  756  274    +29.3       
18 29.05.14 тихо ()   10 км    ясно 
+23.3 +13.2 53 +29  1011.9  0.5  756  278           
21 29.05.14 180 (Ю) 10 км    ясно 
+19.9 +14.3 70 +28  1012.4  0.5  757  281           
00 30.05.14 тихо ()   10 км    ясно 
+17.1 +13.9 81 +24  1011.8  -0.7  756  284           
03 30.05.14 080 (В) 10 км    10/4 1000 м средняя, верхняя 
[Sc|Ac trans|Ci fib]
+18 +14.2 78 +26  1010.9  -0.9  755  283  +16.5        сухая 
06 30.05.14 080 (В) 10 км    8/0 верхняя 
[Ci fib]
+24.1 +15.6 59 +34  1011.1  0.3  756  277           
09 30.05.14 090 (В) 10 км    10/0 средняя, верхняя 
[Ac cast|Cc]
+27.7 +14 43 +35  1010.3  -0.8  755  274           
12 30.05.14 100 (В) 10 км    10/1 1500 м средняя, верхняя 
[Sc|Ac trans|Cc]
+30 +10.4 30 +32  1009.7  -0.6  755  272           
15 30.05.14 080 (В) 10 км    9/3 1000 м средняя, верхняя 
[Cu med, cong|Ac trans|Ci fib]
+28.5 +13.7 40 +35  1008.7  -0.9  754  272    +30.9       
18 30.05.14 080 (В) 10 км    8/3 1000 м средняя 
[Sc|Ac trans]
+26.1 +16.4 55 +37  1008  -0.8  753  274           
21 30.05.14 090 (В) 10 км  {ливн. осадки}  6/1 1000 м средняя 
[Sc|Ac trans]
+23.7 +18.4 72 +39  1006.8  -1.2  752  275           
00 31.05.14 130 (ЮВ) 10 км  {ливн. осадки}  8/4 600 м верхняя 
[Sc|Ci fib]
+22.7 +13.6 56 +29  1007.6  0.8  753  277           
03 31.05.14 тихо ()   10 км  в посл. час ливневой дождь  9/9 600 м кучево-дожд. 
[Cb cap]
+21.5 +15.1 67 +30  1006.8  -0.8  752  278  +21.2    0.0    сухая 
06 31.05.14 080 (В) 10 км  {ливн. осадки}  8/3 1000 м средняя, верхняя 
[Sc|Ac trans|Ci fib]
+25.2 +15.8 56 +35  1007.2  0.4  753  274           
09 31.05.14 050 (СВ) 4000 м  слаб. ливневой дождь  9/8 600 м кучево-дожд., средняя 
[Cb cap|Ac trans]
+24.5 +16.4 61 +36  1006.9  -0.2  753  275           
12 31.05.14 030 (СВ) 10 км  {ливн. осадки}  8/4 1000 м средняя, верхняя 
[Cu med, cong|Ac trans|Ci fib]
+29 +14.9 42 +37  1005.8  -1.1  752  271           
15 31.05.14 040 (СВ) 10 км    3/3 1000 м 
[Sc diur, vesp]
+28.7 +18.5 54 +44  1004.3  -1.5  751  270    +29.9  0.0     
18 31.05.14 070 (В) 10 км  в посл. час гроза  8/4 1000 м кучево-дожд., средняя, верхняя 
[Cb cap|Ac trans|Ci fib]
+24.5 +18.9 71 +41  1004.3  751  273           
21 31.05.14 110 (В) 10 км    10/3 1000 м средняя 
[Sc|Ac und]
+24.1 +18.1 69 +39  1004.3  751  274           
00 01.06.14 300 (СЗ) 10 км  в посл. час ливневой дождь  10/8 1000 м кучево-дожд., средняя 
[Cb cap|Ac und]
+21.8 +16.9 74 +34  1006.4  2.1  752  277           
03 01.06.14 110 (В) 10 км  в посл. час ливневой дождь{гроза}  9/9 1000 м кучево-дожд. 
[Cb cap]
+20.1 +17.9 87 +34  1007.7  1.3  753  279  +20.1      влажная 
06 01.06.14 тихо ()   10 км  {гроза, ливн. осадки}  8/5 1000 м кучево-дожд., средняя 
[Cb cap|Ac trans]
+22.2 +17.3 74 +35  1007.4  -0.3  753  277           
09 01.06.14 260 (З) 10 км    10/3 1000 м кучево-дожд., средняя, верхняя 
[Cb cap|Ac trans|Ci fib]
+24.4 +14.5 54 +32  1009.2  1.9  754  276           
12 01.06.14 320 (СЗ) 10 км    8/4 1000 м кучево-дожд., средняя 
[Cb cap|Ac trans]
+26.7 +15 49 +35  1008.5  -0.8  754  274           
15 01.06.14 310 (СЗ) 10 км    5/3 1000 м кучево-дожд., средняя 
[Cb cap|Ac trans]
+25 +14.5 52 +33  1007.4  -1.1  753  275    +26.9  0.0     
18 01.06.14 320 (СЗ) 10 км    8/5 1000 м кучево-дожд., верхняя 
[Cb cap|Ci fib]
+22.3 +16.8 71 +34  1006.9  -0.5  753  277           
21 01.06.14 260 (З) 4000 м  слаб. ливневой дождь{гроза}  10/10 300 м кучево-дожд. 
[Cb cap]
+20 +17.9 88 +34  1006.3  -0.7  752  278           
00 02.06.14 260 (З) 10 км  слаб. ливневой дождь{гроза}  10/10 600 м кучево-дожд. 
[Cb cap]
+18.9 +16.9 88 +32  1008.5  2.1  754  280           
03 02.06.14 300 (СЗ) 10 км  {гроза, ливн. осадки}  9/6 300 м кучево-дожд., средняя 
[Cb cap|Ac trans]
+19 +16.7 87 +33  1009.4  0.9  754  281  +18.7      влажная 
06 02.06.14 270 (З) 10 км  в посл. час гроза{ливн. осадки}  9/9 1000 м кучево-дожд. 
[Cb cap]
+20.4 +17.4 83 +33  1009.9  0.5  755  279           
09 02.06.14 320 (СЗ) 10 км    9/9 1000 м 
[Sc diur, vesp]
+24 +18.6 72 +39  1009.9  0.1  755  275           
18 02.06.14 360 (С) 10 км  {гроза, ливн. осадки}  10/10 600 м кучево-дожд. 
[Cb cap]
+21.3 +16.6 75 +33  1008.8  -0.4  754  278           
21 02.06.14 тихо ()   10 км  {ливн. осадки}  10/10 600 м 
[Sc diur, vesp]
+19.7 +16.3 81 +31  1008.5  -0.3  754  280           
00 03.06.14 010 (С) 10 км  {ливн. осадки}  8/4 1000 м средняя 
[Sc|Ac trans]
+19 +17.1 89 +33  1007.5  -1  753  280           
03 03.06.14 190 (Ю) 4000 м  гроза, ливневой дождь  10/10 600 м кучево-дожд. 
[Cb cap]
+17 +15.9 93 +28  1008.8  1.3  754  283  +16.7    10    влажная 
Время (UTC), дата Ветер
(°,м/с) 
Видим.   Явления Облачность Т
(°С)
Тd
(°С)
f(%) Тe
(°С)
Pmin
(гПа)
dP
(гПа)
Po
(мм)
O2
(г/м3)
Тmin Tmax R s Состояние
почвы